Hourly Weather Sarajevo

Today, 25 September, Friday

Time Temperature Precipitation Wind Pressure Humidity
00:00 +13°C° 0 mm 2 mps 685 mmHg 96%
01:00 +13°C° 0 mm 2 mps 685 mmHg 97%
02:00 +13°C° 0 mm 2 mps 685 mmHg 95%
03:00 +14°C° 0 mm 2 mps 684 mmHg 94%
04:00 +14°C° 0 mm 2 mps 684 mmHg 93%
05:00 +13°C° 0.1 mm 3 mps 683 mmHg 92%
06:00 +14°C° 0.1 mm 3 mps 683 mmHg 91%
07:00 +14°C° 0 mm 4 mps 682 mmHg 88%
08:00 +15°C° 0.2 mm 4 mps 682 mmHg 89%
09:00 +15°C° 0.2 mm 4 mps 682 mmHg 90%
10:00 +15°C° 0.2 mm 4 mps 681 mmHg 92%
11:00 +15°C° 0.6 mm 4 mps 681 mmHg 91%
12:00 +16°C° 0.6 mm 5 mps 681 mmHg 90%
13:00 +16°C° 0.6 mm 5 mps 680 mmHg 89%
14:00 +16°C° 1.4 mm 5 mps 680 mmHg 89%
15:00 +16°C° 1.4 mm 5 mps 679 mmHg 89%
16:00 +16°C° 1.4 mm 5 mps 678 mmHg 89%
17:00 +16°C° 2.9 mm 5 mps 678 mmHg 91%
18:00 +15°C° 2.9 mm 5 mps 677 mmHg 92%
19:00 +15°C° 2.9 mm 5 mps 676 mmHg 93%
20:00 +15°C° 1.7 mm 6 mps 676 mmHg 93%
21:00 +15°C° 1.7 mm 7 mps 676 mmHg 93%
22:00 +13°C° 1.7 mm 8 mps 675 mmHg 92%
23:00 +12°C° 1.7 mm 7 mps 675 mmHg 93%

Tomorrow, 26 September, Saturday

Time Temperature Precipitation Wind Pressure Humidity
00:00 +11°C° 1.7 mm 6 mps 675 mmHg 94%
01:00 +10°C° 1.7 mm 5 mps 674 mmHg 95%
02:00 +11°C° 0.3 mm 4 mps 674 mmHg 94%
03:00 +10°C° 0.3 mm 4 mps 674 mmHg 94%
04:00 +9°C° 0.3 mm 3 mps 674 mmHg 94%
05:00 +9°C° 0.6 mm 3 mps 673 mmHg 93%
06:00 +8°C° 0.6 mm 4 mps 673 mmHg 91%
07:00 +8°C° 0.6 mm 4 mps 673 mmHg 90%
08:00 +9°C° 0.6 mm 5 mps 674 mmHg 87%
09:00 +9°C° 0.6 mm 5 mps 674 mmHg 85%
10:00 +9°C° 0.6 mm 6 mps 674 mmHg 82%
11:00 +9°C° 0.9 mm 5 mps 674 mmHg 83%
12:00 +9°C° 0.9 mm 5 mps 674 mmHg 83%
13:00 +10°C° 0.9 mm 4 mps 674 mmHg 84%
14:00 +10°C° 0.8 mm 3 mps 674 mmHg 84%
15:00 +10°C° 0.8 mm 2 mps 674 mmHg 83%
16:00 +10°C° 0.8 mm 2 mps 674 mmHg 82%
17:00 +9°C° 0.1 mm 2 mps 675 mmHg 86%
18:00 +8°C° 0.1 mm 2 mps 675 mmHg 90%
19:00 +6°C° 0.1 mm 2 mps 675 mmHg 94%
20:00 +6°C° 0 mm 2 mps 676 mmHg 95%
21:00 +6°C° 0 mm 2 mps 676 mmHg 95%
22:00 +5°C° 0 mm 3 mps 677 mmHg 96%
23:00 +5°C° 0.2 mm 3 mps 677 mmHg 95%

Day after tomorrow, 27 September, Sunday

Time Temperature Precipitation Wind Pressure Humidity
00:00 +7°C° 0.2 mm 3 mps 677 mmHg 95%
01:00 +7°C° 0.2 mm 3 mps 678 mmHg 94%
02:00 +7°C° 0.2 mm 2 mps 678 mmHg 95%
03:00 +6°C° 0.2 mm 2 mps 678 mmHg 95%
04:00 +6°C° 0.2 mm 2 mps 679 mmHg 96%
05:00 +7°C° 1.3 mm 1 mps 679 mmHg 96%
06:00 +7°C° 1.3 mm 1 mps 679 mmHg 95%
07:00 +7°C° 1.3 mm 1 mps 680 mmHg 95%
08:00 +9°C° 0.3 mm 1 mps 681 mmHg 89%
09:00 +10°C° 0.3 mm 1 mps 681 mmHg 83%
10:00 +10°C° 0.3 mm 2 mps 682 mmHg 78%
11:00 +12°C° 0.1 mm 2 mps 682 mmHg 77%
12:00 +12°C° 0.1 mm 3 mps 683 mmHg 76%
13:00 +12°C° 0.1 mm 3 mps 683 mmHg 76%
14:00 +12°C° 0.2 mm 3 mps 682 mmHg 78%
15:00 +12°C° 0.2 mm 3 mps 682 mmHg 80%
16:00 +12°C° 0.2 mm 3 mps 681 mmHg 82%
17:00 +11°C° 0.1 mm 3 mps 681 mmHg 86%
18:00 +10°C° 0.1 mm 3 mps 681 mmHg 90%
19:00 +9°C° 0.1 mm 2 mps 680 mmHg 94%
20:00 +10°C° 3.2 mm 3 mps 680 mmHg 95%
21:00 +10°C° 3.2 mm 4 mps 680 mmHg 96%
22:00 +10°C° 3.2 mm 5 mps 680 mmHg 98%
23:00 +10°C° 7.9 mm 5 mps 680 mmHg 97%

28 September, Monday

Time Temperature Precipitation Wind Pressure Humidity
00:00 +10°C° 7.9 mm 6 mps 680 mmHg 97%
01:00 +11°C° 7.9 mm 6 mps 680 mmHg 97%
02:00 +10°C° 0.4 mm 5 mps 680 mmHg 96%
03:00 +10°C° 0.4 mm 4 mps 680 mmHg 96%
04:00 +10°C° 0.4 mm 3 mps 679 mmHg 95%
05:00 +10°C° 0.5 mm 4 mps 680 mmHg 95%
06:00 +10°C° 0.5 mm 4 mps 680 mmHg 95%
07:00 +10°C° 0.5 mm 4 mps 681 mmHg 95%
08:00 +9°C° 1.7 mm 5 mps 681 mmHg 95%
09:00 +9°C° 1.7 mm 5 mps 681 mmHg 95%
10:00 +9°C° 1.7 mm 5 mps 682 mmHg 95%
11:00 +10°C° 0.9 mm 5 mps 682 mmHg 94%
12:00 +11°C° 0.9 mm 4 mps 683 mmHg 93%
13:00 +11°C° 0.9 mm 4 mps 683 mmHg 91%
14:00 +11°C° 0.5 mm 4 mps 683 mmHg 90%
15:00 +11°C° 0.5 mm 3 mps 683 mmHg 89%
16:00 +11°C° 0.5 mm 3 mps 683 mmHg 87%
17:00 +10°C° 0.1 mm 2 mps 684 mmHg 90%
18:00 +10°C° 0.1 mm 2 mps 684 mmHg 93%
19:00 +10°C° 0.1 mm 1 mps 684 mmHg 95%
20:00 +9°C° 0 mm 1 mps 684 mmHg 95%
21:00 +9°C° 0 mm 1 mps 685 mmHg 95%
22:00 +9°C° 0 mm 1 mps 685 mmHg 96%
23:00 +8°C° 0 mm 1 mps 685 mmHg 96%

29 September, Tuesday

Time Temperature Precipitation Wind Pressure Humidity
00:00 +8°C° 0 mm 1 mps 686 mmHg 96%
01:00 +8°C° 0 mm 1 mps 686 mmHg 97%
02:00 +8°C° 0 mm 1 mps 686 mmHg 96%
03:00 +8°C° 0 mm 1 mps 686 mmHg 96%
04:00 +8°C° 0 mm 1 mps 686 mmHg 95%
05:00 +8°C° 0 mm 1 mps 687 mmHg 94%
06:00 +9°C° 0 mm 1 mps 687 mmHg 92%
07:00 +9°C° 0 mm 1 mps 687 mmHg 91%
08:00 +11°C° 0 mm 1 mps 687 mmHg 83%
09:00 +13°C° 0 mm 1 mps 688 mmHg 75%
10:00 +15°C° 0 mm 1 mps 688 mmHg 67%
11:00 +15°C° 0 mm 2 mps 688 mmHg 64%
12:00 +16°C° 0 mm 2 mps 688 mmHg 60%
13:00 +17°C° 0 mm 2 mps 688 mmHg 57%
14:00 +16°C° 0 mm 2 mps 688 mmHg 62%
15:00 +15°C° 0 mm 2 mps 688 mmHg 68%
16:00 +15°C° 0 mm 2 mps 688 mmHg 73%
17:00 +13°C° 0 mm 1 mps 688 mmHg 80%
18:00 +12°C° 0 mm 1 mps 688 mmHg 87%
19:00 +10°C° 0 mm 1 mps 688 mmHg 93%
20:00 +10°C° 0 mm 1 mps 688 mmHg 94%
21:00 +8°C° 0 mm 0 mps 688 mmHg 94%
22:00 +8°C° 0 mm 0 mps 688 mmHg 94%
23:00 +8°C° 0 mm 0 mps 688 mmHg 94%

30 September, Wednesday

Time Temperature Precipitation Wind Pressure Humidity
00:00 +9°C° 0 mm 1 mps 688 mmHg 93%
01:00 +9°C° 0 mm 1 mps 688 mmHg 92%
02:00 +9°C° 0 mm 1 mps 688 mmHg 92%
03:00 +9°C° 0 mm 1 mps 687 mmHg 92%
04:00 +9°C° 0 mm 1 mps 687 mmHg 92%
05:00 +9°C° 0 mm 1 mps 687 mmHg 90%
06:00 +10°C° 0 mm 1 mps 687 mmHg 88%
07:00 +11°C° 0 mm 1 mps 687 mmHg 86%
08:00 +13°C° 0 mm 1 mps 688 mmHg 76%
09:00 +14°C° 0 mm 1 mps 688 mmHg 67%
10:00 +16°C° 0 mm 1 mps 688 mmHg 57%
11:00 +18°C° 0 mm 1 mps 688 mmHg 56%
12:00 +18°C° 0 mm 1 mps 688 mmHg 54%
13:00 +19°C° 0 mm 1 mps 687 mmHg 53%
14:00 +18°C° 0 mm 1 mps 687 mmHg 57%
15:00 +18°C° 0 mm 1 mps 686 mmHg 61%
16:00 +16°C° 0 mm 1 mps 686 mmHg 65%
17:00 +14°C° 0 mm 1 mps 686 mmHg 71%
18:00 +12°C° 0 mm 1 mps 685 mmHg 78%
19:00 +11°C° 0 mm 1 mps 685 mmHg 84%
20:00 +10°C° 0 mm 1 mps 685 mmHg 85%
21:00 +10°C° 0 mm 1 mps 685 mmHg 86%
22:00 +9°C° 0 mm 1 mps 685 mmHg 87%
23:00 +9°C° 0 mm 1 mps 685 mmHg 86%
Show more